Time,TemperatureF,DewpointF,PressureIn,WindDirection,WindDirectionDegrees,WindSpeedMPH,WindSpeedGustMPH,Humidity,HourlyPrecipIn,Conditions,Clouds,dailyrainin,SoftwareType,DateUTC
2013-10-29 00:01:00,63.9,57.9,30.15,SSE,158,0.0,0.0,81,0.00,CLR,,0.00,WeatherDisplay:10.37,2013-10-29 05:01:00,
2013-10-29 00:06:00,63.9,58.3,30.15,South,180,0.0,0.0,82,0.00,CLR,,0.00,WeatherDisplay:10.37,2013-10-29 05:06:00,
2013-10-29 00:11:00,64.0,58.8,30.15,SSE,158,0.0,0.0,83,0.00,CLR,,0.00,WeatherDisplay:10.37,2013-10-29 05:11:00,
2013-10-29 00:16:00,64.2,58.9,30.15,North,0,1.1,1.1,83,0.00,CLR,,0.00,WeatherDisplay:10.37,2013-10-29 05:16:00,
2013-10-29 00:21:00,64.2,58.9,30.15,NE,45,0.0,0.0,83,0.00,CLR,,0.00,WeatherDisplay:10.37,2013-10-29 05:21:00,
2013-10-29 00:26:00,64.4,59.5,30.15,NW,315,1.1,0.0,84,0.00,CLR,,0.00,WeatherDisplay:10.37,2013-10-29 05:26:00,
2013-10-29 00:31:00,64.4,59.1,30.15,NW,315,0.0,0.0,83,0.00,CLR,,0.00,WeatherDisplay:10.37,2013-10-29 05:31:00,
2013-10-29 00:36:00,64.2,59.3,30.15,NW,315,0.0,0.0,84,0.00,CLR,,0.00,WeatherDisplay:10.37,2013-10-29 05:36:00,
2013-10-29 00:41:00,64.0,58.8,30.15,SSE,158,2.3,2.3,83,0.00,CLR,,0.00,WeatherDisplay:10.37,2013-10-29 05:41:00,
2013-10-29 00:46:00,63.7,58.4,30.15,SSE,158,0.0,0.0,83,0.00,CLR,,0.00,WeatherDisplay:10.37,2013-10-29 05:46:00,
2013-10-29 00:51:00,63.5,58.2,30.15,SSE,158,0.0,0.0,83,0.00,CLR,,0.00,WeatherDisplay:10.37,2013-10-29 05:51:00,
2013-10-29 00:56:00,63.3,58.1,30.15,SSE,158,0.0,0.0,83,0.00,CLR,,0.00,WeatherDisplay:10.37,2013-10-29 05:56:00,
2013-10-29 01:01:00,63.1,57.9,30.15,SSE,158,0.0,0.0,83,0.00,CLR,,0.00,WeatherDisplay:10.37,2013-10-29 06:01:00,
2013-10-29 01:06:00,63.0,57.7,30.15,SSE,158,0.0,0.0,83,0.00,CLR,,0.00,WeatherDisplay:10.37,2013-10-29 06:06:00,
2013-10-29 01:12:00,62.8,57.9,30.15,SSE,158,0.0,0.0,84,0.00,CLR,,0.00,WeatherDisplay:10.37,2013-10-29 06:12:00,
2013-10-29 01:17:00,62.6,57.7,30.15,SSE,158,0.0,0.0,84,0.00,CLR,,0.00,WeatherDisplay:10.37,2013-10-29 06:17:00,
2013-10-29 01:22:00,62.4,57.8,30.15,SSE,158,0.0,0.0,85,0.00,CLR,,0.00,WeatherDisplay:10.37,2013-10-29 06:22:00,
2013-10-29 01:27:00,62.4,57.8,30.15,SSE,158,0.0,0.0,85,0.00,CLR,,0.00,WeatherDisplay:10.37,2013-10-29 06:27:00,
2013-10-29 01:32:00,62.2,57.7,30.15,SSE,158,0.0,0.0,85,0.00,CLR,,0.00,WeatherDisplay:10.37,2013-10-29 06:32:00,
2013-10-29 01:37:00,62.1,57.2,30.15,SSE,158,0.0,0.0,84,0.00,CLR,,0.00,WeatherDisplay:10.37,2013-10-29 06:37:00,
2013-10-29 01:42:00,62.1,57.5,30.15,SSE,158,0.0,0.0,85,0.00,CLR,,0.00,WeatherDisplay:10.37,2013-10-29 06:42:00,
2013-10-29 01:47:00,61.9,57.3,30.15,SSE,158,0.0,0.0,85,0.00,CLR,,0.00,WeatherDisplay:10.37,2013-10-29 06:47:00,
2013-10-29 01:52:00,61.9,57.6,30.15,SSE,158,0.0,0.0,86,0.00,CLR,,0.00,WeatherDisplay:10.37,2013-10-29 06:52:00,
2013-10-29 01:57:00,61.7,57.5,30.15,SSE,158,0.0,0.0,86,0.00,CLR,,0.00,WeatherDisplay:10.37,2013-10-29 06:57:00,
2013-10-29 02:02:00,61.5,57.3,30.15,SSE,158,0.0,0.0,86,0.00,CLR,,0.00,WeatherDisplay:10.37,2013-10-29 07:02:00,
2013-10-29 02:07:00,61.5,57.3,30.15,SSE,158,0.0,0.0,86,0.00,CLR,,0.00,WeatherDisplay:10.37,2013-10-29 07:07:00,
2013-10-29 02:12:00,61.3,57.4,30.15,SSE,158,0.0,0.0,87,0.00,CLR,,0.00,WeatherDisplay:10.37,2013-10-29 07:12:00,
2013-10-29 02:17:00,61.3,57.4,30.15,SSE,158,0.0,0.0,87,0.00,CLR,,0.00,WeatherDisplay:10.37,2013-10-29 07:17:00,
2013-10-29 02:22:00,61.2,56.9,30.15,SSE,158,0.0,0.0,86,0.00,CLR,,0.00,WeatherDisplay:10.37,2013-10-29 07:22:00,
2013-10-29 02:27:00,61.2,57.3,30.15,SSE,158,0.0,0.0,87,0.00,CLR,,0.00,WeatherDisplay:10.37,2013-10-29 07:27:00,
2013-10-29 02:32:00,61.0,56.8,30.15,SSE,158,0.0,0.0,86,0.00,CLR,,0.00,WeatherDisplay:10.37,2013-10-29 07:32:00,
2013-10-29 02:37:00,60.8,56.6,30.15,SSE,158,0.0,0.0,86,0.00,CLR,,0.00,WeatherDisplay:10.37,2013-10-29 07:37:00,
2013-10-29 02:42:00,60.6,56.7,30.15,SSE,158,0.0,0.0,87,0.00,CLR,,0.00,WeatherDisplay:10.37,2013-10-29 07:42:00,
2013-10-29 02:47:00,60.4,56.6,30.15,SSE,158,0.0,0.0,87,0.00,CLR,,0.00,WeatherDisplay:10.37,2013-10-29 07:47:00,
2013-10-29 02:52:00,60.4,56.6,30.15,SSE,158,0.0,0.0,87,0.00,CLR,,0.00,WeatherDisplay:10.37,2013-10-29 07:52:00,
2013-10-29 02:57:00,60.3,56.4,30.15,SSE,158,0.0,0.0,87,0.00,CLR,,0.00,WeatherDisplay:10.37,2013-10-29 07:57:00,
2013-10-29 03:02:00,60.3,56.7,30.15,SSE,158,0.0,0.0,88,0.00,CLR,,0.00,WeatherDisplay:10.37,2013-10-29 08:02:00,
2013-10-29 03:07:00,60.3,56.7,30.15,SSE,158,0.0,0.0,88,0.00,CLR,,0.00,WeatherDisplay:10.37,2013-10-29 08:07:00,
2013-10-29 03:12:00,60.1,56.5,30.15,SSE,158,0.0,0.0,88,0.00,CLR,,0.00,WeatherDisplay:10.37,2013-10-29 08:12:00,
2013-10-29 03:17:00,59.9,56.3,30.15,SSE,158,0.0,0.0,88,0.00,CLR,,0.00,WeatherDisplay:10.37,2013-10-29 08:17:00,
2013-10-29 03:22:00,59.9,56.3,30.15,SSE,158,0.0,0.0,88,0.00,CLR,,0.00,WeatherDisplay:10.37,2013-10-29 08:22:00,
2013-10-29 03:27:00,59.9,56.3,30.15,SSE,158,0.0,0.0,88,0.00,CLR,,0.00,WeatherDisplay:10.37,2013-10-29 08:27:00,
2013-10-29 03:32:00,59.7,56.2,30.15,SSE,158,0.0,0.0,88,0.00,CLR,,0.00,WeatherDisplay:10.37,2013-10-29 08:32:00,
2013-10-29 03:37:00,59.7,56.5,30.15,SSE,158,0.0,0.0,89,0.00,CLR,,0.00,WeatherDisplay:10.37,2013-10-29 08:37:00,
2013-10-29 03:42:00,59.7,56.5,30.15,SSE,158,0.0,0.0,89,0.00,CLR,,0.00,WeatherDisplay:10.37,2013-10-29 08:42:00,
2013-10-29 03:47:00,59.7,56.2,30.15,SSE,158,0.0,0.0,88,0.00,CLR,,0.00,WeatherDisplay:10.37,2013-10-29 08:47:00,
2013-10-29 03:52:00,59.5,56.0,30.15,SSE,158,0.0,0.0,88,0.00,CLR,,0.00,WeatherDisplay:10.37,2013-10-29 08:52:00,
2013-10-29 03:57:00,59.4,55.8,30.15,SSE,158,0.0,0.0,88,0.00,CLR,,0.00,WeatherDisplay:10.37,2013-10-29 08:57:00,
2013-10-29 04:02:00,59.4,55.8,30.15,SSE,158,0.0,0.0,88,0.00,CLR,,0.00,WeatherDisplay:10.37,2013-10-29 09:02:00,
2013-10-29 04:07:00,59.4,56.1,30.15,SSE,158,0.0,0.0,89,0.00,CLR,,0.00,WeatherDisplay:10.37,2013-10-29 09:07:00,
2013-10-29 04:12:00,59.4,56.1,30.15,SSE,158,0.0,0.0,89,0.00,CLR,,0.00,WeatherDisplay:10.37,2013-10-29 09:12:00,
2013-10-29 04:17:00,59.2,55.9,30.15,SSE,158,0.0,0.0,89,0.00,CLR,,0.00,WeatherDisplay:10.37,2013-10-29 09:17:00,
2013-10-29 04:22:00,59.2,55.6,30.15,SSE,158,0.0,0.0,88,0.00,CLR,,0.00,WeatherDisplay:10.37,2013-10-29 09:22:00,
2013-10-29 04:27:00,59.2,55.6,30.15,SSE,158,0.0,0.0,88,0.00,CLR,,0.00,WeatherDisplay:10.37,2013-10-29 09:27:00,
2013-10-29 04:32:00,59.0,55.4,30.12,SSE,158,0.0,0.0,88,0.00,CLR,,0.00,WeatherDisplay:10.37,2013-10-29 09:32:00,
2013-10-29 04:37:00,59.0,55.4,30.12,SSE,158,0.0,0.0,88,0.00,CLR,,0.00,WeatherDisplay:10.37,2013-10-29 09:37:00,
2013-10-29 04:42:00,58.8,55.6,30.12,SSE,158,0.0,0.0,89,0.00,CLR,,0.00,WeatherDisplay:10.37,2013-10-29 09:42:00,
2013-10-29 04:47:00,58.8,55.6,30.15,SSE,158,0.0,0.0,89,0.00,CLR,,0.00,WeatherDisplay:10.37,2013-10-29 09:47:00,
2013-10-29 04:52:00,58.8,55.6,30.15,SSE,158,0.0,0.0,89,0.00,CLR,,0.00,WeatherDisplay:10.37,2013-10-29 09:52:00,
2013-10-29 04:57:00,58.6,55.4,30.15,SSE,158,0.0,0.0,89,0.00,CLR,,0.00,WeatherDisplay:10.37,2013-10-29 09:57:00,
2013-10-29 05:02:00,58.6,55.4,30.12,SSE,158,0.0,0.0,89,0.00,CLR,,0.00,WeatherDisplay:10.37,2013-10-29 10:02:00,
2013-10-29 05:07:00,58.6,55.4,30.12,SSE,158,0.0,0.0,89,0.00,CLR,,0.00,WeatherDisplay:10.37,2013-10-29 10:07:00,
2013-10-29 05:12:00,58.5,55.2,30.12,SSE,158,0.0,0.0,89,0.00,CLR,,0.00,WeatherDisplay:10.37,2013-10-29 10:12:00,
2013-10-29 05:17:00,58.5,55.2,30.15,SSE,158,0.0,0.0,89,0.00,CLR,,0.00,WeatherDisplay:10.37,2013-10-29 10:17:00,
2013-10-29 05:22:00,58.5,55.5,30.15,SSE,158,0.0,0.0,90,0.00,CLR,,0.00,WeatherDisplay:10.37,2013-10-29 10:22:00,
2013-10-29 05:27:00,58.5,55.5,30.15,SSE,158,0.0,0.0,90,0.00,CLR,,0.00,WeatherDisplay:10.37,2013-10-29 10:27:00,
2013-10-29 05:32:00,58.5,55.5,30.15,SSE,158,0.0,0.0,90,0.00,CLR,,0.00,WeatherDisplay:10.37,2013-10-29 10:32:00,
2013-10-29 05:37:00,58.5,55.5,30.15,SSE,158,0.0,0.0,90,0.00,CLR,,0.00,WeatherDisplay:10.37,2013-10-29 10:37:00,
2013-10-29 05:42:00,58.5,55.5,30.15,SSE,158,0.0,0.0,90,0.00,CLR,,0.00,WeatherDisplay:10.37,2013-10-29 10:42:00,
2013-10-29 05:47:00,58.5,55.5,30.15,SSE,158,0.0,0.0,90,0.00,CLR,,0.00,WeatherDisplay:10.37,2013-10-29 10:47:00,
2013-10-29 05:52:00,58.5,55.5,30.15,SSE,158,0.0,0.0,90,0.00,CLR,,0.00,WeatherDisplay:10.37,2013-10-29 10:52:00,
2013-10-29 05:57:00,58.6,55.7,30.15,SSE,158,0.0,0.0,90,0.00,CLR,,0.00,WeatherDisplay:10.37,2013-10-29 10:57:00,
2013-10-29 06:02:00,58.8,56.2,30.15,SSE,158,0.0,0.0,91,0.00,CLR,,0.00,WeatherDisplay:10.37,2013-10-29 11:02:00,
2013-10-29 06:07:00,58.8,56.2,30.15,SSE,158,0.0,0.0,91,0.00,CLR,,0.00,WeatherDisplay:10.37,2013-10-29 11:07:00,
2013-10-29 06:12:00,59.0,56.4,30.15,SSE,158,0.0,0.0,91,0.00,CLR,,0.00,WeatherDisplay:10.37,2013-10-29 11:12:00,
2013-10-29 06:17:00,59.2,56.9,30.15,SSE,158,0.0,0.0,92,0.00,CLR,,0.00,WeatherDisplay:10.37,2013-10-29 11:17:00,
2013-10-29 06:22:00,59.2,56.6,30.15,SSE,158,0.0,0.0,91,0.00,CLR,,0.00,WeatherDisplay:10.37,2013-10-29 11:22:00,
2013-10-29 06:27:00,59.2,56.6,30.15,SSE,158,0.0,0.0,91,0.00,CLR,,0.00,WeatherDisplay:10.37,2013-10-29 11:27:00,
2013-10-29 06:33:00,59.4,56.7,30.18,SSE,158,0.0,0.0,91,0.00,CLR,,0.00,WeatherDisplay:10.37,2013-10-29 11:33:00,
2013-10-29 06:38:00,59.5,57.2,30.18,SSE,158,0.0,0.0,92,0.00,CLR,,0.00,WeatherDisplay:10.37,2013-10-29 11:38:00,
2013-10-29 06:43:00,59.7,57.4,30.18,SSE,158,0.0,0.0,92,0.00,CLR,,0.00,WeatherDisplay:10.37,2013-10-29 11:43:00,
2013-10-29 06:48:00,60.1,58.0,30.18,SSE,158,0.0,0.0,93,0.00,CLR,,0.00,WeatherDisplay:10.37,2013-10-29 11:48:00,
2013-10-29 06:53:00,60.3,58.2,30.18,North,0,0.0,0.0,93,0.00,CLR,,0.00,WeatherDisplay:10.37,2013-10-29 11:53:00,
2013-10-29 06:58:00,60.3,58.2,30.18,NNW,338,0.0,0.0,93,0.00,CLR,,0.00,WeatherDisplay:10.37,2013-10-29 11:58:00,
2013-10-29 07:03:00,60.4,58.4,30.18,NNW,338,0.0,0.0,93,0.00,CLR,,0.00,WeatherDisplay:10.37,2013-10-29 12:03:00,
2013-10-29 07:08:00,60.3,58.2,30.18,NNW,338,1.1,0.0,93,0.00,CLR,,0.00,WeatherDisplay:10.37,2013-10-29 12:08:00,
2013-10-29 07:13:00,60.3,58.2,30.18,NNW,338,0.0,0.0,93,0.00,CLR,,0.00,WeatherDisplay:10.37,2013-10-29 12:13:00,
2013-10-29 07:18:00,60.1,57.7,30.18,ESE,112,0.0,0.0,92,0.00,CLR,,0.00,WeatherDisplay:10.37,2013-10-29 12:18:00,
2013-10-29 07:23:00,60.1,58.0,30.18,ESE,112,0.0,0.0,93,0.00,CLR,,0.00,WeatherDisplay:10.37,2013-10-29 12:23:00,
2013-10-29 07:28:00,60.1,58.0,30.18,ESE,112,0.0,0.0,93,0.00,CLR,,0.00,WeatherDisplay:10.37,2013-10-29 12:28:00,
2013-10-29 07:33:00,60.1,58.0,30.18,ESE,112,0.0,0.0,93,0.00,CLR,,0.00,WeatherDisplay:10.37,2013-10-29 12:33:00,
2013-10-29 07:38:00,60.1,57.7,30.18,ESE,112,0.0,0.0,92,0.00,CLR,,0.00,WeatherDisplay:10.37,2013-10-29 12:38:00,
2013-10-29 07:43:00,60.1,57.7,30.18,ESE,112,0.0,0.0,92,0.00,CLR,,0.00,WeatherDisplay:10.37,2013-10-29 12:43:00,
2013-10-29 07:48:00,60.1,57.7,30.18,ESE,112,0.0,0.0,92,0.00,CLR,,0.00,WeatherDisplay:10.37,2013-10-29 12:48:00,
2013-10-29 07:53:00,60.3,58.2,30.18,ESE,112,0.0,0.0,93,0.00,CLR,,0.00,WeatherDisplay:10.37,2013-10-29 12:53:00,
2013-10-29 07:58:00,60.3,58.2,30.18,ESE,112,0.0,0.0,93,0.00,CLR,,0.00,WeatherDisplay:10.37,2013-10-29 12:58:00,
2013-10-29 08:03:00,60.4,58.4,30.21,ESE,112,0.0,0.0,93,0.00,CLR,,0.00,WeatherDisplay:10.37,2013-10-29 13:03:00,
2013-10-29 08:08:00,60.8,58.8,30.21,ESE,112,0.0,0.0,93,0.00,CLR,,0.00,WeatherDisplay:10.37,2013-10-29 13:08:00,
2013-10-29 08:13:00,61.2,59.1,30.18,NNE,22,0.0,0.0,93,0.00,CLR,,0.00,WeatherDisplay:10.37,2013-10-29 13:13:00,
2013-10-29 08:18:00,61.5,59.5,30.18,South,180,0.0,0.0,93,0.00,CLR,,0.00,WeatherDisplay:10.37,2013-10-29 13:18:00,
2013-10-29 08:23:00,61.9,59.8,30.18,South,180,0.0,0.0,93,0.00,CLR,,0.00,WeatherDisplay:10.37,2013-10-29 13:23:00,
2013-10-29 08:28:00,62.4,60.7,30.21,South,180,0.0,0.0,94,0.00,CLR,,0.00,WeatherDisplay:10.37,2013-10-29 13:28:00,
2013-10-29 08:33:00,62.8,61.0,30.21,SSE,158,1.1,0.0,94,0.00,CLR,,0.00,WeatherDisplay:10.37,2013-10-29 13:33:00,
2013-10-29 08:38:00,63.1,61.4,30.21,ESE,112,1.1,1.1,94,0.00,CLR,,0.00,WeatherDisplay:10.37,2013-10-29 13:38:00,
2013-10-29 08:43:00,63.7,61.9,30.21,SSE,158,1.1,0.0,94,0.00,CLR,,0.00,WeatherDisplay:10.37,2013-10-29 13:43:00,
2013-10-29 08:48:00,64.2,62.5,30.21,SSE,158,2.3,2.3,94,0.00,CLR,,0.00,WeatherDisplay:10.37,2013-10-29 13:48:00,
2013-10-29 08:53:00,64.8,62.7,30.21,SSE,158,2.4,2.4,93,0.00,CLR,,0.00,WeatherDisplay:10.37,2013-10-29 13:53:00,
2013-10-29 08:58:00,65.1,63.0,30.21,ENE,68,2.3,2.3,93,0.00,CLR,,0.00,WeatherDisplay:10.37,2013-10-29 13:58:00,
2013-10-29 09:03:00,65.5,63.4,30.21,East,90,1.1,0.0,93,0.00,CLR,,0.00,WeatherDisplay:10.37,2013-10-29 14:03:00,
2013-10-29 09:08:00,65.8,63.8,30.21,ESE,112,2.3,2.3,93,0.00,CLR,,0.00,WeatherDisplay:10.37,2013-10-29 14:08:00,
2013-10-29 09:13:00,66.4,64.0,30.21,NNW,338,2.3,2.3,92,0.00,CLR,,0.00,WeatherDisplay:10.37,2013-10-29 14:13:00,
2013-10-29 09:18:00,66.7,64.3,30.21,SE,135,2.3,2.3,92,0.00,CLR,,0.00,WeatherDisplay:10.37,2013-10-29 14:18:00,
2013-10-29 09:23:00,67.3,64.6,30.21,South,180,2.3,2.3,91,0.00,CLR,,0.00,WeatherDisplay:10.37,2013-10-29 14:23:00,
2013-10-29 09:28:00,67.8,65.1,30.21,SSE,158,2.3,2.3,91,0.00,CLR,,0.00,WeatherDisplay:10.37,2013-10-29 14:28:00,
2013-10-29 09:33:00,68.2,65.1,30.21,SSE,158,4.6,4.6,90,0.00,CLR,,0.00,WeatherDisplay:10.37,2013-10-29 14:33:00,
2013-10-29 09:38:00,68.7,65.3,30.21,North,0,3.5,3.5,89,0.00,CLR,,0.00,WeatherDisplay:10.37,2013-10-29 14:38:00,
2013-10-29 09:43:00,69.3,65.6,30.21,South,180,3.6,3.6,88,0.00,CLR,,0.00,WeatherDisplay:10.37,2013-10-29 14:43:00,
2013-10-29 09:48:00,69.8,65.1,30.21,SSE,158,3.5,3.5,85,0.00,CLR,,0.00,WeatherDisplay:10.37,2013-10-29 14:48:00,
2013-10-29 09:53:00,70.3,64.9,30.21,SSE,158,3.5,3.5,83,0.00,CLR,,0.00,WeatherDisplay:10.37,2013-10-29 14:53:00,
2013-10-29 09:58:00,70.9,64.4,30.21,SSE,158,3.1,3.1,80,0.00,CLR,,0.00,WeatherDisplay:10.37,2013-10-29 14:58:00,
2013-10-29 10:03:00,71.4,64.6,30.21,South,180,4.6,4.6,79,0.00,CLR,,0.00,WeatherDisplay:10.37,2013-10-29 15:03:00,
2013-10-29 10:08:00,72.0,64.7,30.21,SSE,158,3.5,4.3,78,0.00,CLR,,0.00,WeatherDisplay:10.37,2013-10-29 15:08:00,
2013-10-29 10:13:00,72.9,65.6,30.21,SSE,158,5.8,5.8,78,0.00,CLR,,0.00,WeatherDisplay:10.37,2013-10-29 15:13:00,
2013-10-29 10:18:00,73.8,65.3,30.21,SSE,158,3.5,3.5,75,0.00,CLR,,0.00,WeatherDisplay:10.37,2013-10-29 15:18:00,
2013-10-29 10:23:00,74.3,63.5,30.21,South,180,4.6,4.6,69,0.00,CLR,,0.00,WeatherDisplay:10.37,2013-10-29 15:23:00,
2013-10-29 10:28:00,74.7,63.0,30.21,SSE,158,4.6,4.6,67,0.00,CLR,,0.00,WeatherDisplay:10.37,2013-10-29 15:28:00,
2013-10-29 10:33:00,75.0,61.6,30.21,SSE,158,3.6,3.6,63,0.00,CLR,,0.00,WeatherDisplay:10.37,2013-10-29 15:33:00,
2013-10-29 10:38:00,75.6,60.7,30.21,South,180,4.6,4.6,60,0.00,CLR,,0.00,WeatherDisplay:10.37,2013-10-29 15:38:00,
2013-10-29 10:43:00,76.3,62.8,30.21,SE,135,5.8,5.8,63,0.00,CLR,,0.00,WeatherDisplay:10.37,2013-10-29 15:43:00,
2013-10-29 10:48:00,77.0,63.0,30.21,SSW,202,6.9,6.9,62,0.00,CLR,,0.00,WeatherDisplay:10.37,2013-10-29 15:48:00,
2013-10-29 10:53:00,77.2,59.8,30.21,SSW,202,10.4,10.4,55,0.00,CLR,,0.00,WeatherDisplay:10.37,2013-10-29 15:53:00,
2013-10-29 10:58:00,77.5,60.1,30.21,South,180,5.9,5.9,55,0.00,CLR,,0.00,WeatherDisplay:10.37,2013-10-29 15:58:00,
2013-10-29 11:03:00,78.1,59.0,30.21,SSE,158,5.8,5.8,52,0.00,CLR,,0.00,WeatherDisplay:10.37,2013-10-29 16:03:00,
2013-10-29 11:08:00,78.4,58.8,30.21,SE,135,11.5,11.5,51,0.00,CLR,,0.00,WeatherDisplay:10.37,2013-10-29 16:08:00,
2013-10-29 11:13:00,78.8,58.6,30.21,ESE,112,12.7,12.7,50,0.00,CLR,,0.00,WeatherDisplay:10.37,2013-10-29 16:13:00,
2013-10-29 11:18:00,78.8,58.0,30.21,SSE,158,9.2,9.2,49,0.00,CLR,,0.00,WeatherDisplay:10.37,2013-10-29 16:18:00,
2013-10-29 11:23:00,79.0,56.4,30.21,SE,135,6.9,6.9,46,0.00,CLR,,0.00,WeatherDisplay:10.37,2013-10-29 16:23:00,
2013-10-29 11:28:00,79.7,58.3,30.18,SSE,158,3.5,4.7,48,0.00,CLR,,0.00,WeatherDisplay:10.37,2013-10-29 16:28:00,
2013-10-29 11:33:00,80.2,57.0,30.18,ESE,112,3.6,4.9,45,0.00,CLR,,0.00,WeatherDisplay:10.37,2013-10-29 16:33:00,
2013-10-29 11:38:00,80.8,57.5,30.18,SSE,158,9.2,9.2,45,0.00,CLR,,0.00,WeatherDisplay:10.37,2013-10-29 16:38:00,
2013-10-29 11:43:00,81.3,55.4,30.18,SE,135,10.4,10.4,41,0.00,CLR,,0.00,WeatherDisplay:10.37,2013-10-29 16:43:00,
2013-10-29 11:48:00,81.0,53.0,30.18,ESE,112,7.4,7.4,38,0.00,CLR,,0.00,WeatherDisplay:10.37,2013-10-29 16:48:00,
2013-10-29 11:54:00,80.8,53.5,30.18,SSE,158,8.1,8.1,39,0.00,CLR,,0.00,WeatherDisplay:10.37,2013-10-29 16:54:00,
2013-10-29 11:59:00,81.3,54.7,30.18,South,180,5.8,6.0,40,0.00,CLR,,0.00,WeatherDisplay:10.37,2013-10-29 16:59:00,
2013-10-29 12:04:00,82.0,55.3,30.18,SE,135,8.1,8.1,40,0.00,CLR,,0.00,WeatherDisplay:10.37,2013-10-29 17:04:00,
2013-10-29 12:09:00,83.1,56.3,30.18,SSE,158,10.4,10.4,40,0.00,CLR,,0.00,WeatherDisplay:10.37,2013-10-29 17:09:00,
2013-10-29 12:14:00,83.7,55.4,30.15,South,180,10.4,10.4,38,0.00,CLR,,0.00,WeatherDisplay:10.37,2013-10-29 17:14:00,
2013-10-29 12:19:00,83.8,55.5,30.15,South,180,9.8,9.8,38,0.00,CLR,,0.00,WeatherDisplay:10.37,2013-10-29 17:19:00,
2013-10-29 12:24:00,84.4,55.3,30.15,SSE,158,7.6,7.6,37,0.00,CLR,,0.00,WeatherDisplay:10.37,2013-10-29 17:24:00,
2013-10-29 12:29:00,84.7,54.1,30.18,South,180,15.0,15.0,35,0.00,CLR,,0.00,WeatherDisplay:10.37,2013-10-29 17:29:00,
2013-10-29 12:34:00,84.7,53.3,30.18,SSW,202,10.4,10.4,34,0.00,CLR,,0.00,WeatherDisplay:10.37,2013-10-29 17:34:00,
2013-10-29 12:39:00,84.6,52.3,30.18,SSE,158,6.0,6.0,33,0.00,CLR,,0.00,WeatherDisplay:10.37,2013-10-29 17:39:00,
2013-10-29 12:44:00,83.7,49.8,30.15,South,180,8.1,8.1,31,0.00,CLR,,0.00,WeatherDisplay:10.37,2013-10-29 17:44:00,
2013-10-29 12:49:00,83.8,50.8,30.15,SSE,158,6.9,7.1,32,0.00,CLR,,0.00,WeatherDisplay:10.37,2013-10-29 17:49:00,
2013-10-29 12:54:00,82.9,49.2,30.15,SE,135,5.8,5.8,31,0.00,CLR,,0.00,WeatherDisplay:10.37,2013-10-29 17:54:00,
2013-10-29 12:59:00,82.9,50.0,30.15,ESE,112,5.8,5.8,32,0.00,CLR,,0.00,WeatherDisplay:10.37,2013-10-29 17:59:00,
2013-10-29 13:04:00,82.8,49.9,30.15,SSE,158,5.8,5.8,32,0.00,CLR,,0.00,WeatherDisplay:10.37,2013-10-29 18:04:00,
2013-10-29 13:09:00,83.1,51.0,30.15,SSE,158,4.6,4.6,33,0.00,CLR,,0.00,WeatherDisplay:10.37,2013-10-29 18:09:00,
2013-10-29 13:14:00,83.8,52.5,30.15,SSE,158,9.8,9.8,34,0.00,CLR,,0.00,WeatherDisplay:10.37,2013-10-29 18:14:00,
2013-10-29 13:19:00,84.2,50.3,30.15,SW,225,9.2,9.2,31,0.00,CLR,,0.00,WeatherDisplay:10.37,2013-10-29 18:19:00,
2013-10-29 13:24:00,84.4,51.3,30.15,South,180,10.4,10.4,32,0.00,CLR,,0.00,WeatherDisplay:10.37,2013-10-29 18:24:00,
2013-10-29 13:29:00,84.0,50.1,30.12,SSE,158,6.9,6.9,31,0.00,CLR,,0.00,WeatherDisplay:10.37,2013-10-29 18:29:00,
2013-10-29 13:34:00,83.5,49.7,30.12,NNW,338,8.1,8.1,31,0.00,CLR,,0.00,WeatherDisplay:10.37,2013-10-29 18:34:00,
2013-10-29 13:39:00,83.3,49.5,30.12,SSE,158,5.8,5.8,31,0.00,CLR,,0.00,WeatherDisplay:10.37,2013-10-29 18:39:00,
2013-10-29 13:44:00,83.8,50.8,30.15,South,180,6.9,6.9,32,0.00,CLR,,0.00,WeatherDisplay:10.37,2013-10-29 18:44:00,
2013-10-29 13:49:00,83.8,50.0,30.15,SSE,158,6.9,6.9,31,0.00,CLR,,0.00,WeatherDisplay:10.37,2013-10-29 18:49:00,
2013-10-29 13:54:00,83.5,49.7,30.15,SE,135,5.8,5.8,31,0.00,CLR,,0.00,WeatherDisplay:10.37,2013-10-29 18:54:00,
2013-10-29 13:59:00,82.9,49.2,30.15,South,180,5.8,5.8,31,0.00,CLR,,0.00,WeatherDisplay:10.37,2013-10-29 18:59:00,
2013-10-29 14:04:00,82.9,50.0,30.15,SSE,158,4.6,4.6,32,0.00,CLR,,0.00,WeatherDisplay:10.37,2013-10-29 19:04:00,
2013-10-29 14:09:00,82.8,49.9,30.15,South,180,5.8,5.8,32,0.00,CLR,,0.00,WeatherDisplay:10.37,2013-10-29 19:09:00,
2013-10-29 14:14:00,82.6,48.9,30.15,SSW,202,8.1,8.1,31,0.00,CLR,,0.00,WeatherDisplay:10.37,2013-10-29 19:14:00,
2013-10-29 14:19:00,82.2,49.4,30.15,South,180,4.6,4.6,32,0.00,CLR,,0.00,WeatherDisplay:10.37,2013-10-29 19:19:00,
2013-10-29 14:24:00,81.9,49.1,30.15,NE,45,4.6,4.6,32,0.00,CLR,,0.00,WeatherDisplay:10.37,2013-10-29 19:24:00,
2013-10-29 14:29:00,82.0,50.1,30.15,South,180,8.1,8.1,33,0.00,CLR,,0.00,WeatherDisplay:10.37,2013-10-29 19:29:00,
2013-10-29 14:34:00,82.0,49.3,30.15,South,180,6.9,6.9,32,0.00,CLR,,0.00,WeatherDisplay:10.37,2013-10-29 19:34:00,
2013-10-29 14:39:00,81.7,49.8,30.15,SSE,158,4.7,4.7,33,0.00,CLR,,0.00,WeatherDisplay:10.37,2013-10-29 19:39:00,
2013-10-29 14:44:00,81.9,49.9,30.12,SSE,158,3.5,3.5,33,0.00,CLR,,0.00,WeatherDisplay:10.37,2013-10-29 19:44:00,
2013-10-29 14:49:00,81.5,49.6,30.12,SSE,158,4.6,4.6,33,0.00,CLR,,0.00,WeatherDisplay:10.37,2013-10-29 19:49:00,
2013-10-29 14:54:00,81.1,48.5,30.12,SSE,158,5.8,5.8,32,0.00,CLR,,0.00,WeatherDisplay:10.37,2013-10-29 19:54:00,
2013-10-29 14:59:00,81.7,50.6,30.12,SSE,158,5.8,5.8,34,0.00,CLR,,0.00,WeatherDisplay:10.37,2013-10-29 19:59:00,
2013-10-29 15:04:00,82.4,51.2,30.12,SSE,158,12.7,12.7,34,0.00,CLR,,0.00,WeatherDisplay:10.37,2013-10-29 20:04:00,
2013-10-29 15:09:00,82.9,51.7,30.12,South,180,10.4,10.4,34,0.00,CLR,,0.00,WeatherDisplay:10.37,2013-10-29 20:09:00,
2013-10-29 15:14:00,83.1,51.8,30.12,SE,135,4.9,4.9,34,0.00,CLR,,0.00,WeatherDisplay:10.37,2013-10-29 20:14:00,
2013-10-29 15:19:00,82.4,49.6,30.12,South,180,6.9,6.9,32,0.00,CLR,,0.00,WeatherDisplay:10.37,2013-10-29 20:19:00,
2013-10-29 15:24:00,81.7,48.9,30.12,South,180,5.8,5.9,32,0.00,CLR,,0.00,WeatherDisplay:10.37,2013-10-29 20:24:00,
2013-10-29 15:29:00,81.5,48.8,30.12,SE,135,8.1,8.1,32,0.00,CLR,,0.00,WeatherDisplay:10.37,2013-10-29 20:29:00,
2013-10-29 15:34:00,81.7,48.9,30.12,ESE,112,8.1,8.1,32,0.00,CLR,,0.00,WeatherDisplay:10.37,2013-10-29 20:34:00,
2013-10-29 15:39:00,81.3,48.6,30.12,ESE,112,5.8,5.8,32,0.00,CLR,,0.00,WeatherDisplay:10.37,2013-10-29 20:39:00,
2013-10-29 15:44:00,81.0,49.1,30.12,SE,135,6.9,6.9,33,0.00,CLR,,0.00,WeatherDisplay:10.37,2013-10-29 20:44:00,
2013-10-29 15:49:00,81.1,49.3,30.12,SSE,158,5.8,5.9,33,0.00,CLR,,0.00,WeatherDisplay:10.37,2013-10-29 20:49:00,
2013-10-29 15:54:00,80.8,49.0,30.12,South,180,5.8,5.8,33,0.00,CLR,,0.00,WeatherDisplay:10.37,2013-10-29 20:54:00,
2013-10-29 15:59:00,80.4,48.7,30.12,SSE,158,3.5,3.5,33,0.00,CLR,,0.00,WeatherDisplay:10.37,2013-10-29 20:59:00,
2013-10-29 16:04:00,80.1,49.2,30.12,West,270,5.8,5.8,34,0.00,CLR,,0.00,WeatherDisplay:10.37,2013-10-29 21:04:00,
2013-10-29 16:09:00,80.1,49.2,30.12,SE,135,6.9,6.9,34,0.00,CLR,,0.00,WeatherDisplay:10.37,2013-10-29 21:09:00,
2013-10-29 16:14:00,80.1,49.2,30.15,South,180,6.4,6.4,34,0.00,CLR,,0.00,WeatherDisplay:10.37,2013-10-29 21:14:00,
2013-10-29 16:19:00,80.4,49.5,30.15,SE,135,5.8,5.8,34,0.00,CLR,,0.00,WeatherDisplay:10.37,2013-10-29 21:19:00,
2013-10-29 16:24:00,80.4,49.5,30.15,SSE,158,7.4,7.4,34,0.00,CLR,,0.00,WeatherDisplay:10.37,2013-10-29 21:24:00,
2013-10-29 16:29:00,80.2,49.3,30.15,SSE,158,8.1,8.1,34,0.00,CLR,,0.00,WeatherDisplay:10.37,2013-10-29 21:29:00,
2013-10-29 16:34:00,80.2,49.3,30.15,SSE,158,6.9,6.9,34,0.00,CLR,,0.00,WeatherDisplay:10.37,2013-10-29 21:34:00,
2013-10-29 16:39:00,79.9,49.0,30.15,South,180,8.1,8.1,34,0.00,CLR,,0.00,WeatherDisplay:10.37,2013-10-29 21:39:00,
2013-10-29 16:44:00,79.5,47.9,30.12,SSE,158,3.5,3.5,33,0.00,CLR,,0.00,WeatherDisplay:10.37,2013-10-29 21:44:00,
2013-10-29 16:49:00,79.5,48.7,30.12,South,180,8.1,8.1,34,0.00,CLR,,0.00,WeatherDisplay:10.37,2013-10-29 21:49:00,
2013-10-29 16:54:00,79.3,48.5,30.12,SSW,202,6.2,6.2,34,0.00,CLR,,0.00,WeatherDisplay:10.37,2013-10-29 21:54:00,
2013-10-29 16:59:00,79.0,49.0,30.15,ESE,112,3.5,3.5,35,0.00,CLR,,0.00,WeatherDisplay:10.37,2013-10-29 21:59:00,
2013-10-29 17:04:00,78.8,48.1,30.15,SSE,158,8.1,8.1,34,0.00,CLR,,0.00,WeatherDisplay:10.37,2013-10-29 22:04:00,
2013-10-29 17:09:00,78.6,48.7,30.15,SSE,158,4.6,4.6,35,0.00,CLR,,0.00,WeatherDisplay:10.37,2013-10-29 22:09:00,
2013-10-29 17:15:00,78.3,48.4,30.12,ESE,112,6.0,6.0,35,0.00,CLR,,0.00,WeatherDisplay:10.37,2013-10-29 22:15:00,
2013-10-29 17:20:00,77.9,48.8,30.12,SSE,158,3.5,3.5,36,0.00,CLR,,0.00,WeatherDisplay:10.37,2013-10-29 22:20:00,
2013-10-29 17:25:00,77.5,47.7,30.12,SSE,158,2.9,4.3,35,0.00,CLR,,0.00,WeatherDisplay:10.37,2013-10-29 22:25:00,
2013-10-29 17:30:00,77.0,48.0,30.12,SSE,158,3.5,3.5,36,0.00,CLR,,0.00,WeatherDisplay:10.37,2013-10-29 22:30:00,
2013-10-29 17:35:00,76.6,48.4,30.12,South,180,2.3,2.3,37,0.00,CLR,,0.00,WeatherDisplay:10.37,2013-10-29 22:35:00,
2013-10-29 17:40:00,76.3,48.8,30.12,SSE,158,3.5,3.5,38,0.00,CLR,,0.00,WeatherDisplay:10.37,2013-10-29 22:40:00,
2013-10-29 17:45:00,75.7,49.0,30.15,South,180,1.6,1.6,39,0.00,CLR,,0.00,WeatherDisplay:10.37,2013-10-29 22:45:00,
2013-10-29 17:50:00,75.4,48.7,30.15,SSE,158,3.5,3.5,39,0.00,CLR,,0.00,WeatherDisplay:10.37,2013-10-29 22:50:00,
2013-10-29 17:55:00,75.0,49.7,30.15,SSE,158,2.3,2.3,41,0.00,CLR,,0.00,WeatherDisplay:10.37,2013-10-29 22:55:00,
2013-10-29 18:00:00,74.7,49.4,30.15,South,180,1.1,1.1,41,0.00,CLR,,0.00,WeatherDisplay:10.37,2013-10-29 23:00:00,
2013-10-29 18:05:00,74.3,49.7,30.15,South,180,2.3,2.3,42,0.00,CLR,,0.00,WeatherDisplay:10.37,2013-10-29 23:05:00,
2013-10-29 18:10:00,73.9,49.4,30.15,SSE,158,2.3,2.3,42,0.00,CLR,,0.00,WeatherDisplay:10.37,2013-10-29 23:10:00,
2013-10-29 18:15:00,73.4,49.5,30.15,SSE,158,2.3,0.0,43,0.00,CLR,,0.00,WeatherDisplay:10.37,2013-10-29 23:15:00,
2013-10-29 18:20:00,73.0,49.8,30.15,South,180,2.6,2.6,44,0.00,CLR,,0.00,WeatherDisplay:10.37,2013-10-29 23:20:00,
2013-10-29 18:25:00,72.7,49.5,30.15,SSE,158,1.1,0.0,44,0.00,CLR,,0.00,WeatherDisplay:10.37,2013-10-29 23:25:00,
2013-10-29 18:30:00,72.3,49.8,30.15,SSE,158,2.3,0.0,45,0.00,CLR,,0.00,WeatherDisplay:10.37,2013-10-29 23:30:00,
2013-10-29 18:35:00,72.0,50.0,30.15,SE,135,2.3,2.3,46,0.00,CLR,,0.00,WeatherDisplay:10.37,2013-10-29 23:35:00,
2013-10-29 18:40:00,71.8,49.9,30.15,South,180,1.1,0.0,46,0.00,CLR,,0.00,WeatherDisplay:10.37,2013-10-29 23:40:00,
2013-10-29 18:45:00,71.4,50.1,30.15,SSE,158,3.5,3.5,47,0.00,CLR,,0.00,WeatherDisplay:10.37,2013-10-29 23:45:00,
2013-10-29 18:50:00,71.1,50.4,30.15,SSE,158,2.3,2.3,48,0.00,CLR,,0.00,WeatherDisplay:10.37,2013-10-29 23:50:00,
2013-10-29 18:55:00,70.7,50.6,30.15,SSE,158,1.1,0.0,49,0.00,CLR,,0.00,WeatherDisplay:10.37,2013-10-29 23:55:00,
2013-10-29 19:00:00,70.5,51.0,30.15,SSE,158,2.3,2.3,50,0.00,CLR,,0.00,WeatherDisplay:10.37,2013-10-30 00:00:00,
2013-10-29 19:05:00,70.3,51.3,30.15,SSE,158,2.6,2.6,51,0.00,CLR,,0.00,WeatherDisplay:10.37,2013-10-30 00:05:00,
2013-10-29 19:10:00,70.2,51.2,30.15,SSE,158,2.3,2.3,51,0.00,CLR,,0.00,WeatherDisplay:10.37,2013-10-30 00:10:00,
2013-10-29 19:15:00,70.2,51.7,30.15,South,180,1.1,1.1,52,0.00,CLR,,0.00,WeatherDisplay:10.37,2013-10-30 00:15:00,
2013-10-29 19:20:00,70.0,52.1,30.15,South,180,2.3,2.3,53,0.00,CLR,,0.00,WeatherDisplay:10.37,2013-10-30 00:20:00,
2013-10-29 19:25:00,69.8,52.4,30.15,SE,135,2.9,0.0,54,0.00,CLR,,0.00,WeatherDisplay:10.37,2013-10-30 00:25:00,
2013-10-29 19:30:00,69.6,52.7,30.15,South,180,2.3,2.3,55,0.00,CLR,,0.00,WeatherDisplay:10.37,2013-10-30 00:30:00,
2013-10-29 19:35:00,69.8,52.9,30.15,SSE,158,2.4,2.4,55,0.00,CLR,,0.00,WeatherDisplay:10.37,2013-10-30 00:35:00,
2013-10-29 19:40:00,69.6,52.7,30.15,SSE,158,1.1,0.0,55,0.00,CLR,,0.00,WeatherDisplay:10.37,2013-10-30 00:40:00,
2013-10-29 19:45:00,69.4,53.1,30.12,South,180,2.3,2.3,56,0.00,CLR,,0.00,WeatherDisplay:10.37,2013-10-30 00:45:00,
2013-10-29 19:50:00,69.3,53.4,30.12,South,180,2.3,2.3,57,0.00,CLR,,0.00,WeatherDisplay:10.37,2013-10-30 00:50:00,
2013-10-29 19:55:00,69.3,53.4,30.12,South,180,2.3,2.3,57,0.00,CLR,,0.00,WeatherDisplay:10.37,2013-10-30 00:55:00,
2013-10-29 20:00:00,69.1,53.2,30.15,ESE,112,1.1,1.1,57,0.00,CLR,,0.00,WeatherDisplay:10.37,2013-10-30 01:00:00,
2013-10-29 20:05:00,69.1,54.1,30.15,ESE,112,3.5,3.5,59,0.00,CLR,,0.00,WeatherDisplay:10.37,2013-10-30 01:05:00,
2013-10-29 20:10:00,68.9,54.0,30.15,SSE,158,2.3,2.3,59,0.00,CLR,,0.00,WeatherDisplay:10.37,2013-10-30 01:10:00,
2013-10-29 20:15:00,68.9,54.4,30.15,South,180,3.5,3.5,60,0.00,CLR,,0.00,WeatherDisplay:10.37,2013-10-30 01:15:00,
2013-10-29 20:20:00,68.9,54.9,30.15,SE,135,3.8,3.8,61,0.00,CLR,,0.00,WeatherDisplay:10.37,2013-10-30 01:20:00,
2013-10-29 20:25:00,68.9,55.3,30.15,SSE,158,3.5,3.5,62,0.00,CLR,,0.00,WeatherDisplay:10.37,2013-10-30 01:25:00,
2013-10-29 20:30:00,68.7,55.2,30.12,SE,135,7.6,7.6,62,0.00,CLR,,0.00,WeatherDisplay:10.37,2013-10-30 01:30:00,
2013-10-29 20:35:00,68.5,55.0,30.12,ESE,112,6.4,6.4,62,0.00,CLR,,0.00,WeatherDisplay:10.37,2013-10-30 01:35:00,
2013-10-29 20:40:00,68.5,56.3,30.12,ESE,112,3.6,3.6,65,0.00,CLR,,0.00,WeatherDisplay:10.37,2013-10-30 01:40:00,
2013-10-29 20:45:00,68.5,56.3,30.12,South,180,4.6,4.6,65,0.00,CLR,,0.00,WeatherDisplay:10.37,2013-10-30 01:45:00,
2013-10-29 20:50:00,68.5,56.7,30.12,SE,135,2.3,2.3,66,0.00,CLR,,0.00,WeatherDisplay:10.37,2013-10-30 01:50:00,
2013-10-29 20:55:00,68.4,56.6,30.12,SSE,158,3.5,3.5,66,0.00,CLR,,0.00,WeatherDisplay:10.37,2013-10-30 01:55:00,
2013-10-29 21:00:00,68.4,57.4,30.18,SSE,158,2.3,2.3,68,0.00,CLR,,0.00,WeatherDisplay:10.37,2013-10-30 02:00:00,
2013-10-29 21:05:00,68.5,57.6,30.18,South,180,3.5,3.5,68,0.00,CLR,,0.00,WeatherDisplay:10.37,2013-10-30 02:05:00,
2013-10-29 21:10:00,68.4,57.4,30.18,SSE,158,2.3,2.3,68,0.00,CLR,,0.00,WeatherDisplay:10.37,2013-10-30 02:10:00,
2013-10-29 21:15:00,68.2,57.2,30.18,SE,135,1.1,0.0,68,0.00,CLR,,0.00,WeatherDisplay:10.37,2013-10-30 02:15:00,
2013-10-29 21:20:00,68.0,57.0,30.18,SSE,158,2.6,2.6,68,0.00,CLR,,0.00,WeatherDisplay:10.37,2013-10-30 02:20:00,
2013-10-29 21:25:00,68.0,57.0,30.18,South,180,2.3,2.3,68,0.00,CLR,,0.00,WeatherDisplay:10.37,2013-10-30 02:25:00,
2013-10-29 21:30:00,67.8,57.3,30.18,SSE,158,1.1,0.0,69,0.00,CLR,,0.00,WeatherDisplay:10.37,2013-10-30 02:30:00,
2013-10-29 21:35:00,67.6,57.1,30.18,SSE,158,0.0,0.0,69,0.00,CLR,,0.00,WeatherDisplay:10.37,2013-10-30 02:35:00,
2013-10-29 21:40:00,67.5,56.9,30.18,SSE,158,0.0,0.0,69,0.00,CLR,,0.00,WeatherDisplay:10.37,2013-10-30 02:40:00,
2013-10-29 21:45:00,67.3,57.2,30.18,SSE,158,0.0,0.0,70,0.00,CLR,,0.00,WeatherDisplay:10.37,2013-10-30 02:45:00,
2013-10-29 21:50:00,67.1,57.4,30.18,SSE,158,0.0,0.0,71,0.00,CLR,,0.00,WeatherDisplay:10.37,2013-10-30 02:50:00,
2013-10-29 21:55:00,66.9,57.2,30.18,ENE,68,0.0,0.0,71,0.00,CLR,,0.00,WeatherDisplay:10.37,2013-10-30 02:55:00,
2013-10-29 22:01:00,66.6,56.9,30.18,SSE,158,0.0,0.0,71,0.00,CLR,,0.00,WeatherDisplay:10.37,2013-10-30 03:01:00,
2013-10-29 22:06:00,66.6,57.3,30.18,South,180,0.0,0.0,72,0.00,CLR,,0.00,WeatherDisplay:10.37,2013-10-30 03:06:00,
2013-10-29 22:11:00,66.2,56.9,30.18,SSE,158,0.0,0.0,72,0.00,CLR,,0.00,WeatherDisplay:10.37,2013-10-30 03:11:00,
2013-10-29 22:16:00,66.0,57.1,30.18,SSE,158,0.0,0.0,73,0.00,CLR,,0.00,WeatherDisplay:10.37,2013-10-30 03:16:00,
2013-10-29 22:21:00,65.7,57.1,30.18,SSE,158,0.0,0.0,74,0.00,CLR,,0.00,WeatherDisplay:10.37,2013-10-30 03:21:00,
2013-10-29 22:26:00,65.7,57.9,30.18,SSE,158,0.0,0.0,76,0.00,CLR,,0.00,WeatherDisplay:10.37,2013-10-30 03:26:00,
2013-10-29 22:31:00,65.7,58.3,30.18,SSE,158,1.1,0.0,77,0.00,CLR,,0.00,WeatherDisplay:10.37,2013-10-30 03:31:00,
2013-10-29 22:36:00,65.7,58.6,30.18,ENE,68,1.4,1.4,78,0.00,CLR,,0.00,WeatherDisplay:10.37,2013-10-30 03:36:00,
2013-10-29 22:41:00,65.7,59.0,30.18,SSE,158,0.0,0.0,79,0.00,CLR,,0.00,WeatherDisplay:10.37,2013-10-30 03:41:00,
2013-10-29 22:46:00,65.5,58.8,30.18,SSE,158,0.0,0.0,79,0.00,CLR,,0.00,WeatherDisplay:10.37,2013-10-30 03:46:00,
2013-10-29 22:51:00,65.5,59.1,30.18,SSE,158,0.0,0.0,80,0.00,CLR,,0.00,WeatherDisplay:10.37,2013-10-30 03:51:00,
2013-10-29 22:56:00,65.1,58.4,30.18,SSE,158,0.0,0.0,79,0.00,CLR,,0.00,WeatherDisplay:10.37,2013-10-30 03:56:00,
2013-10-29 23:01:00,65.1,58.8,30.18,SSE,158,0.0,0.0,80,0.00,CLR,,0.00,WeatherDisplay:10.37,2013-10-30 04:01:00,
2013-10-29 23:06:00,64.9,58.6,30.18,SSE,158,0.0,0.0,80,0.00,CLR,,0.00,WeatherDisplay:10.37,2013-10-30 04:06:00,
2013-10-29 23:12:00,64.8,58.4,30.18,SSE,158,0.0,0.0,80,0.00,CLR,,0.00,WeatherDisplay:10.37,2013-10-30 04:12:00,
2013-10-29 23:17:00,64.8,58.8,30.18,SSE,158,0.0,0.0,81,0.00,CLR,,0.00,WeatherDisplay:10.37,2013-10-30 04:17:00,
2013-10-29 23:22:00,64.8,59.1,30.18,SSE,158,0.0,0.0,82,0.00,CLR,,0.00,WeatherDisplay:10.37,2013-10-30 04:22:00,
2013-10-29 23:27:00,64.8,59.1,30.18,SSE,158,0.0,0.0,82,0.00,CLR,,0.00,WeatherDisplay:10.37,2013-10-30 04:27:00,
2013-10-29 23:32:00,64.8,59.1,30.18,SSE,158,0.0,0.0,82,0.00,CLR,,0.00,WeatherDisplay:10.37,2013-10-30 04:32:00,
2013-10-29 23:37:00,64.6,59.0,30.18,SSE,158,0.0,0.0,82,0.00,CLR,,0.00,WeatherDisplay:10.37,2013-10-30 04:37:00,
2013-10-29 23:42:00,64.4,58.8,30.18,SSE,158,0.0,0.0,82,0.00,CLR,,0.00,WeatherDisplay:10.37,2013-10-30 04:42:00,
2013-10-29 23:47:00,64.2,58.6,30.18,SSE,158,0.0,0.0,82,0.00,CLR,,0.00,WeatherDisplay:10.37,2013-10-30 04:47:00,
2013-10-29 23:52:00,64.0,58.8,30.18,SSE,158,0.0,0.0,83,0.00,CLR,,0.00,WeatherDisplay:10.37,2013-10-30 04:52:00,
2013-10-29 23:57:00,63.9,58.6,30.18,SSE,158,0.0,0.0,83,0.00,CLR,,0.00,WeatherDisplay:10.37,2013-10-30 04:57:00,